Free Severe Weather Alerts by Email and Text Message   

 
Follow iAlert.com on twitter @ialertcom
Search For Active Alerts in Your Area  
  Hi Guest:  [ Sign-up / Services ] [ Login ]

Current weather by "City, St" or "zip code"  

 

Advertise Here

Hazardous Weather Conditions

No active alerts for CHICAGO, ILLINOIS

Current Conditions: CHICAGO, ILLINOIS

Fair


52.0 F

Last Updated on Oct 20 2017, 7:52 am CDT
Humidity: 86%
Wind Speed: SE 3.5 mph
Barometer 30.18 in
Dewpoint: 48.0 F
Visibility: 10.00 mi
Precip: --
Heat Index: NA
Wind Chill: NA
Current conditions at:

Chicago / Wheeling, Pal-Waukee Airport, IL (KPWK)

Lat: 42.12 Lon: -87.904

Local Radar Image active severe weather and emergency alerts image image weather storm and storm spotter reports image weather observation monitoring service image
Local
Radar
Active
Alerts
Storm Reports Weather
Monitoring

Weather Alert Notification Services


ialert severe weather and emergency alerts by text message and email ialert daily weather forecast by email and text message service ialert real-time weather-observation monitoring and alert notification service ialert storm report monitoring alert notification

Observation History for CHICAGO, ILLINOIS


Time Wind
(mph)
Vis
(mi)
Weather Precip (in) Temperature (F) Relative
Humidity
Wind
Chill
(°F)
Heat
Index
(°F)
Pressure
Air Dwpt altimeter
(in)
sea level
(mb)
7:52 am CDT SE 3.5 10.00 Fair -- 52.0 48.0 86% NA NA 30.18 1022.0
6:52 am CDT N 0.0 10.00 Fair -- 50.0 45.0 83% NA NA 30.17 1021.9
5:52 am CDT N 0.0 10.00 Fair -- 49.0 45.0 86% NA NA 30.17 1021.7
4:52 am CDT N 0.0 10.00 Fair -- 51.0 43.0 74% NA NA 30.17 1021.5
3:52 am CDT N 0.0 10.00 Fair -- 50.0 42.1 74% NA NA 30.15 1021.0
2:52 am CDT N 0.0 10.00 Fair -- 50.0 42.1 74% NA NA 30.15 1021.1
1:52 am CDT N 0.0 10.00 Fair -- 50.0 42.1 74% NA NA 30.15 1021.1
12:52 am CDT N 0.0 10.00 Fair -- 50.0 42.1 74% NA NA 30.16 1021.3
11:52 pm CDT N 0.0 10.00 Fair -- 49.0 41.0 74% NA NA 30.16 1021.3
10:52 pm CDT N 0.0 10.00 Fair -- 50.0 39.9 68% NA NA 30.17 1021.5
9:52 pm CDT N 0.0 10.00 Fair -- 50.0 39.0 66% NA NA 30.17 1021.7
8:52 pm CDT N 0.0 10.00 Fair -- 51.0 36.0 56% NA NA 30.18 1021.9
7:52 pm CDT N 0.0 10.00 Fair -- 52.0 35.1 53% NA NA 30.18 1022.1
6:52 pm CDT SE 4.6 10.00 Fair -- 56.0 30.9 39% 55 NA 30.18 1022.1
5:52 pm CDT SE 5.8 10.00 Fair -- 62.0 27.0 26% 62 NA 30.17 1021.8
4:52 pm CDT SE 6.9 10.00 Fair -- 64.0 26.1 24% NA NA 30.18 1021.8
3:52 pm CDT SE 8.1 10.00 Fair -- 66.0 25.0 21% NA NA 30.18 1022.0
2:52 pm CDT E 6.9 10.00 Fair -- 67.0 27.0 22% NA NA 30.17 1021.6
1:52 pm CDT SE 3.5 10.00 Fair -- 68.0 26.1 21% NA NA 30.18 1022.0
12:52 pm CDT N 0.0 10.00 Fair -- 68.0 25.0 20% NA NA 30.19 1022.2
11:52 am CDT N 0.0 10.00 Fair -- 65.0 26.1 23% NA NA 30.21 1022.7
10:52 am CDT N 5.8 10.00 Fair -- 65.0 28.9 26% NA NA 30.20 1022.4
9:52 am CDT N 4.6 10.00 Fair -- 62.0 34.0 35% 62 NA 30.19 1022.1
8:52 am CDT N 0.0 10.00 Fair -- 58.0 44.1 60% NA NA 30.17 1021.6

Regional Weather Observation:


Chicago, Chicago-OHare International Airport, IL (KORD)

A Few Clouds
54.0 F

Chicago/Waukegan Regional Airport, IL (KUGN)

Fair
55.0 F

Chicago, Chicago Midway Airport, IL (KMDW)

A Few Clouds
57.0 F

Kenosha, Kenosha Regional Airport, WI (KENW)

Fair
50.0 F

Chicago / West Chicago, Dupage Airport, IL (KDPA)

Fog/Mist
51.0 F

Racine, Batten International Airport, WI (KRAC)

Fair
55.0 F

Advertise Here


Advertise Here